This is the latest recevied weather packets stored in our database for station/object N4CRH-13. If no packets are shown the sender has not sent any weather packets the latest 10 day(s).
| Time | Temp. | Humidity | Pressure | Rain* | Wind** | Luminosity | Snow |
|---|---|---|---|---|---|---|---|
| 1777759972 | 17.78° C | 24% | 1297.3 hPa | 0 mm | - | 423 W/m² | - |
| 1777759669 | 17.78° C | 24% | 1297.1 hPa | 0 mm | - | 438 W/m² | - |
| 1777758759 | 17.78° C | 23% | 1297.3 hPa | 0 mm | - | 475 W/m² | - |
| 1777757850 | 18.89° C | 27% | 1297.6 hPa | 0 mm | - | 518 W/m² | - |
| 1777757547 | 18.89° C | 23% | 1297.8 hPa | 0 mm | - | 526 W/m² | - |
| 1777757247 | 17.78° C | 23% | 1297.8 hPa | 0 mm | - | 537 W/m² | - |
| 1777756640 | 18.33° C | 24% | 1298.1 hPa | 0 mm | - | 562 W/m² | - |
| 1777756337 | 17.78° C | 26% | 1298.1 hPa | 0 mm | - | 571 W/m² | - |
| 1777755429 | 17.78° C | 23% | 1298.2 hPa | 0 mm | - | 602 W/m² | - |
| 1777753915 | 17.78° C | 25% | 1298.7 hPa | 0 mm | - | 655 W/m² | - |
| 1777753608 | 18.33° C | 23% | 1298.5 hPa | 0 mm | - | 665 W/m² | - |
| 1777753307 | 18.33° C | 24% | 1298.6 hPa | 0 mm | - | 671 W/m² | - |
| 1777753003 | 17.78° C | 26% | 1298.4 hPa | 0 mm | - | 678 W/m² | - |
| 1777752700 | 17.22° C | 26% | 1298.5 hPa | 0 mm | - | 690 W/m² | - |
| 1777752395 | 16.67° C | 22% | 1298.4 hPa | 0 mm | - | 699 W/m² | - |
| 1777752093 | 17.22° C | 23% | 1298.8 hPa | 0 mm | - | 702 W/m² | - |
| 1777751791 | 17.22° C | 23% | 1298.6 hPa | 0 mm | - | 710 W/m² | - |
| 1777751184 | 16.67° C | 24% | 1299 hPa | 0 mm | - | 716 W/m² | - |
| 1777750577 | 16.67° C | 22% | 1298.8 hPa | 0 mm | - | 725 W/m² | - |
| 1777750274 | 16.67° C | 23% | 1298.7 hPa | 0 mm | - | 728 W/m² | - |
| 1777749970 | 17.22° C | 23% | 1299.1 hPa | 0 mm | - | 736 W/m² | - |
| 1777749668 | 16.67° C | 23% | 1299 hPa | 0 mm | - | 736 W/m² | - |
| 1777749364 | 16.11° C | 24% | 1299.1 hPa | 0 mm | - | 739 W/m² | - |
| 1777749062 | 17.78° C | 23% | 1299 hPa | 0 mm | - | 740 W/m² | - |
| 1777748759 | 16.11° C | 26% | 1299.1 hPa | 0 mm | - | 743 W/m² | - |
* Rain latest hour (hover to see other rain measurements)
** Current wind speed in m/s (hover to see current wind gust speed)